,,PA_Meas_PMT16A,,PR_Meas_QMR101_102,,RH_Meas_QMH101,,SR_Meas_QMS101,,TA_Meas_QMH101,,GenWind,,GenWind,
time,status,PA,status,PR,status,RH,status,SR,status,TA,status,DirAvg,status,SpdAvg,
2013-02-14, 00:00:04,VALID,917.101,VALID,0,VALID,96.5887,VALID,0,VALID,19.2767,VALID,183,VALID,1.02109,
2013-02-14, 00:01:04,VALID,917.066,VALID,0,VALID,96.5887,VALID,0,VALID,19.2753,VALID,149,VALID,0.416406,
2013-02-14, 00:02:04,VALID,917.067,VALID,0,VALID,96.5887,VALID,0.107441,VALID,19.3157,VALID,169,VALID,0.830859,
2013-02-14, 00:03:04,VALID,917.091,VALID,0,VALID,96.5658,VALID,0,VALID,19.2948,VALID,169,VALID,0.586328,
2013-02-14, 00:04:04,VALID,917.078,VALID,0,VALID,96.5201,VALID,0,VALID,19.2948,VALID,169,VALID,0.928906,
2013-02-14, 00:05:04,VALID,917.06,VALID,0,VALID,96.5124,VALID,0.107441,VALID,19.3143,VALID,160,VALID,1.53906,
2013-02-14, 00:06:04,VALID,917.038,VALID,0,VALID,96.5201,VALID,0,VALID,19.3338,VALID,150,VALID,0.599219,
2013-02-14, 00:07:04,VALID,917.034,VALID,0,VALID,96.4743,VALID,0,VALID,19.3338,VALID,174,VALID,1.52969,
2013-02-14, 00:08:04,VALID,917.029,VALID,0,VALID,96.4591,VALID,0,VALID,19.3128,VALID,178,VALID,0.975781,
2013-02-14, 00:09:04,VALID,916.976,VALID,0,VALID,96.4438,VALID,0,VALID,19.3338,VALID,162,VALID,0.70625,
2013-02-14, 00:10:04,VALID,916.964,VALID,0,VALID,96.4133,VALID,0,VALID,19.2723,VALID,178,VALID,1.32187,
2013-02-14, 00:11:04,VALID,916.932,VALID,0,VALID,96.4057,VALID,0,VALID,19.3562,VALID,157,VALID,0.75,
2013-02-14, 00:12:04,VALID,916.941,VALID,0,VALID,96.3676,VALID,0,VALID,19.3338,VALID,157,VALID,0.907031,
2013-02-14, 00:13:04,VALID,916.894,VALID,0,VALID,96.36,VALID,0,VALID,19.3143,VALID,167,VALID,1.44687,
2013-02-14, 00:14:04,VALID,916.872,VALID,0,VALID,96.3752,VALID,0,VALID,19.3143,VALID,188,VALID,0.735547,
2013-02-14, 00:15:04,VALID,916.912,VALID,0,VALID,96.36,VALID,0,VALID,19.3143,VALID,154,VALID,1.36758,
2013-02-14, 00:16:04,VALID,916.895,VALID,0,VALID,96.3752,VALID,0,VALID,19.3143,VALID,164,VALID,0.547656,
2013-02-14, 00:17:04,VALID,916.856,VALID,0,VALID,96.3829,VALID,0,VALID,19.3338,VALID,157,VALID,0.903906,
2013-02-14, 00:18:04,VALID,916.858,VALID,0,VALID,96.3981,VALID,0,VALID,19.3352,VALID,166,VALID,0.826563,
2013-02-14, 00:19:04,VALID,916.835,VALID,0,VALID,96.3524,VALID,0,VALID,19.3547,VALID,159,VALID,0.488281,
2013-02-14, 00:20:04,VALID,916.833,VALID,0,VALID,96.36,VALID,0,VALID,19.3338,VALID,144,VALID,0.989844,
2013-02-14, 00:21:04,VALID,916.828,VALID,0,VALID,96.3219,VALID,0,VALID,19.3742,VALID,130,VALID,0.624219,
2013-02-14, 00:22:04,VALID,916.847,VALID,0,VALID,96.3524,VALID,0,VALID,19.3533,VALID,164,VALID,0.896094,
2013-02-14, 00:23:04,VALID,916.858,VALID,0,VALID,96.3066,VALID,0,VALID,19.3728,VALID,127,VALID,0.926172,
2013-02-14, 00:24:04,VALID,916.855,VALID,0,VALID,96.2914,VALID,0,VALID,19.3728,VALID,119,VALID,1.14414,
2013-02-14, 00:25:04,VALID,916.853,VALID,0,VALID,96.2685,VALID,0,VALID,19.3533,VALID,126,VALID,1.02109,
2013-02-14, 00:26:04,VALID,916.849,VALID,0,VALID,96.2456,VALID,0,VALID,19.3742,VALID,94,VALID,1.19062,
2013-02-14, 00:27:04,VALID,916.883,VALID,0,VALID,96.2304,VALID,0,VALID,19.3923,VALID,123,VALID,1.44883,
2013-02-14, 00:28:04,VALID,916.889,VALID,0,VALID,96.2151,VALID,0,VALID,19.3923,VALID,126,VALID,1.18594,
2013-02-14, 00:29:05,VALID,916.866,VALID,0,VALID,96.177,VALID,0,VALID,19.3923,VALID,114,VALID,0.846875,
2013-02-14, 00:30:05,VALID,916.837,VALID,0,VALID,96.1618,VALID,0,VALID,19.4118,VALID,93,VALID,1.05117,
2013-02-14, 00:31:05,VALID,916.786,VALID,0,VALID,96.1008,VALID,0,VALID,19.3908,VALID,114,VALID,0.78125,
2013-02-14, 00:32:05,VALID,916.79,VALID,0,VALID,96.0627,VALID,0,VALID,19.4118,VALID,117,VALID,1.04531,
2013-02-14, 00:33:05,VALID,916.774,VALID,0,VALID,96.0398,VALID,0,VALID,19.4103,VALID,142,VALID,0.833984,
2013-02-14, 00:34:05,VALID,916.767,VALID,0,VALID,96.0398,VALID,0,VALID,19.4298,VALID,151,VALID,0.766016,
2013-02-14, 00:35:05,VALID,916.751,VALID,0,VALID,96.0169,VALID,0,VALID,19.4523,VALID,146,VALID,1.06523,
2013-02-14, 00:36:05,VALID,916.741,VALID,0,VALID,95.9941,VALID,0,VALID,19.4508,VALID,117,VALID,0.771875,
2013-02-14, 00:37:05,VALID,916.74,VALID,0,VALID,95.9636,VALID,0,VALID,19.4313,VALID,133,VALID,1.11484,
2013-02-14, 00:38:05,VALID,916.745,VALID,0,VALID,95.9559,VALID,0,VALID,19.4103,VALID,147,VALID,0.507813,
2013-02-14, 00:39:05,VALID,916.76,VALID,0,VALID,95.9941,VALID,0,VALID,19.4537,VALID,133,VALID,0.79375,
2013-02-14, 00:40:05,VALID,916.773,VALID,0,VALID,95.9864,VALID,0,VALID,19.4327,VALID,143,VALID,0.877734,
2013-02-14, 00:41:05,VALID,916.762,VALID,0,VALID,95.9712,VALID,0,VALID,19.4327,VALID,151,VALID,0.611328,
2013-02-14, 00:42:05,VALID,916.762,VALID,0,VALID,95.9788,VALID,0,VALID,19.4103,VALID,145,VALID,0.685938,
2013-02-14, 00:43:05,VALID,916.735,VALID,0,VALID,95.9788,VALID,0,VALID,19.4118,VALID,144,VALID,0.600781,
2013-02-14, 00:44:05,VALID,916.76,VALID,0,VALID,95.9636,VALID,0,VALID,19.3908,VALID,150,VALID,0.970703,
2013-02-14, 00:45:05,VALID,916.786,VALID,0,VALID,95.9483,VALID,0,VALID,19.3908,VALID,139,VALID,0.536719,
2013-02-14, 00:46:05,VALID,916.773,VALID,0,VALID,95.9636,VALID,0,VALID,19.4327,VALID,121,VALID,0.492578,
2013-02-14, 00:47:05,VALID,916.752,VALID,0,VALID,95.9559,VALID,0,VALID,19.3923,VALID,122,VALID,0.477734,
2013-02-14, 00:48:05,VALID,916.74,VALID,0,VALID,95.9712,VALID,0,VALID,19.4118,VALID,141,VALID,0.285937,
2013-02-14, 00:49:05,VALID,916.726,VALID,0,VALID,95.9636,VALID,0,VALID,19.4327,VALID,141,VALID,0.21875,
2013-02-14, 00:50:05,VALID,916.729,VALID,0,VALID,95.9712,VALID,0,VALID,19.3713,VALID,141,VALID,0.220313,
2013-02-14, 00:51:05,VALID,916.718,VALID,0,VALID,95.9178,VALID,0,VALID,19.3713,VALID,133,VALID,0.348047,
2013-02-14, 00:52:05,VALID,916.693,VALID,0,VALID,95.9483,VALID,0,VALID,19.3923,VALID,152,VALID,0.539453,
2013-02-14, 00:53:05,VALID,916.677,VALID,0,VALID,95.9331,VALID,0,VALID,19.4118,VALID,142,VALID,0.248828,
2013-02-14, 00:54:05,VALID,916.668,VALID,0,VALID,95.9026,VALID,0,VALID,19.3923,VALID,127,VALID,0.89375,
2013-02-14, 00:55:05,VALID,916.673,VALID,0,VALID,95.7882,VALID,0,VALID,19.3518,VALID,104,VALID,0.821875,
2013-02-14, 00:56:05,VALID,916.625,VALID,0,VALID,95.7654,VALID,0,VALID,19.3533,VALID,125,VALID,0.9875,
2013-02-14, 00:57:05,VALID,916.629,VALID,0,VALID,95.7654,VALID,0,VALID,19.3533,VALID,105,VALID,0.794922,
2013-02-14, 00:58:05,VALID,916.619,VALID,0,VALID,95.7425,VALID,0,VALID,19.2933,VALID,114,VALID,0.716406,
2013-02-14, 00:59:05,VALID,916.602,VALID,0,VALID,95.7425,VALID,0,VALID,19.3143,VALID,114,VALID,0.732813,
2013-02-14, 01:00:05,VALID,916.643,VALID,0,VALID,95.7349,VALID,0,VALID,19.2948,VALID,134,VALID,0.782422,
2013-02-14, 01:01:05,VALID,916.633,VALID,0,VALID,95.7425,VALID,0,VALID,19.2753,VALID,115,VALID,0.616016,
2013-02-14, 01:02:05,VALID,916.635,VALID,0,VALID,95.7958,VALID,0,VALID,19.2558,VALID,122,VALID,1.20977,
2013-02-14, 01:03:05,VALID,916.627,VALID,0,VALID,95.8263,VALID,0,VALID,19.2363,VALID,131,VALID,1.26523,
2013-02-14, 01:04:05,VALID,916.619,VALID,0,VALID,95.8568,VALID,0,VALID,19.1973,VALID,132,VALID,0.941016,
2013-02-14, 01:05:05,VALID,916.596,VALID,0,VALID,95.9178,VALID,0.107441,VALID,19.1958,VALID,123,VALID,0.900391,
2013-02-14, 01:06:05,VALID,916.571,VALID,0,VALID,95.9712,VALID,0,VALID,19.1778,VALID,151,VALID,0.568359,
2013-02-14, 01:07:05,VALID,916.578,VALID,0,VALID,96.0322,VALID,0,VALID,19.1568,VALID,151,VALID,0.615234,
2013-02-14, 01:08:05,VALID,916.567,VALID,0,VALID,96.0474,VALID,0,VALID,19.1583,VALID,165,VALID,0.617578,
2013-02-14, 01:09:05,VALID,916.591,VALID,0,VALID,96.1236,VALID,0,VALID,19.1373,VALID,170,VALID,0.317187,
2013-02-14, 01:10:05,VALID,916.542,VALID,0,VALID,96.1465,VALID,0,VALID,19.1373,VALID,170,VALID,0.0148437,
2013-02-14, 01:11:05,VALID,916.513,VALID,0,VALID,96.1465,VALID,0,VALID,19.1597,VALID,170,VALID,0.434375,
2013-02-14, 01:12:05,VALID,916.515,VALID,0,VALID,96.1389,VALID,0,VALID,19.0593,VALID,170,VALID,0.341797,
2013-02-14, 01:13:05,VALID,916.523,VALID,0,VALID,96.2075,VALID,0,VALID,19.0788,VALID,170,VALID,0.749219,
2013-02-14, 01:14:05,VALID,916.497,VALID,0,VALID,96.2456,VALID,0,VALID,19.0998,VALID,157,VALID,0.183984,
2013-02-14, 01:15:05,VALID,916.46,VALID,0,VALID,96.2533,VALID,0,VALID,19.0803,VALID,157,VALID,0.699219,
2013-02-14, 01:16:05,VALID,916.444,VALID,0,VALID,96.299,VALID,0,VALID,19.0788,VALID,146,VALID,1.18398,
2013-02-14, 01:17:05,VALID,916.428,VALID,0,VALID,96.3066,VALID,0.107441,VALID,19.1373,VALID,139,VALID,1.03359,
2013-02-14, 01:18:05,VALID,916.389,VALID,0,VALID,96.3066,VALID,0,VALID,19.1973,VALID,169,VALID,0.828906,
2013-02-14, 01:19:05,VALID,916.379,VALID,0,VALID,96.2761,VALID,0,VALID,19.1763,VALID,152,VALID,0.719141,
2013-02-14, 01:20:05,VALID,916.356,VALID,0,VALID,96.1694,VALID,0.107441,VALID,19.1973,VALID,152,VALID,0.247656,
2013-02-14, 01:21:05,VALID,916.335,VALID,0,VALID,96.0627,VALID,0,VALID,19.2168,VALID,143,VALID,0.869141,
2013-02-14, 01:22:05,VALID,916.281,VALID,0,VALID,96.0169,VALID,0,VALID,19.1973,VALID,164,VALID,0.663672,
2013-02-14, 01:23:05,VALID,916.253,VALID,0,VALID,95.9331,VALID,0,VALID,19.1973,VALID,163,VALID,0.546484,
2013-02-14, 01:24:05,VALID,916.26,VALID,0,VALID,95.9102,VALID,0,VALID,19.1568,VALID,154,VALID,0.733984,
2013-02-14, 01:25:05,VALID,916.244,VALID,0,VALID,95.9178,VALID,0.107441,VALID,19.1778,VALID,141,VALID,0.333984,
2013-02-14, 01:26:05,VALID,916.227,VALID,0,VALID,95.8873,VALID,0,VALID,19.1568,VALID,131,VALID,0.664063,
2013-02-14, 01:27:05,VALID,916.185,VALID,0,VALID,95.895,VALID,0,VALID,19.1164,VALID,130,VALID,1.0875,
2013-02-14, 01:28:05,VALID,916.15,VALID,0,VALID,95.8873,VALID,0.107441,VALID,19.1583,VALID,124,VALID,0.811328,
2013-02-14, 01:29:05,VALID,916.154,VALID,0,VALID,95.9026,VALID,0.107441,VALID,19.1583,VALID,124,VALID,0.521094,
2013-02-14, 01:30:05,VALID,916.108,VALID,0,VALID,95.9483,VALID,0,VALID,19.1583,VALID,127,VALID,0.476172,
2013-02-14, 01:31:05,VALID,916.136,VALID,0,VALID,95.895,VALID,0,VALID,19.1568,VALID,139,VALID,0.243359,
2013-02-14, 01:32:05,VALID,916.139,VALID,0,VALID,95.8873,VALID,0,VALID,19.1583,VALID,139,VALID,0.0839844,
2013-02-14, 01:33:05,VALID,916.12,VALID,0,VALID,95.9102,VALID,0,VALID,19.1583,VALID,139,VALID,0.289844,
2013-02-14, 01:34:05,VALID,916.134,VALID,0,VALID,95.8721,VALID,0,VALID,19.1778,VALID,139,VALID,0.382813,
2013-02-14, 01:35:05,VALID,916.164,VALID,0,VALID,95.8645,VALID,0,VALID,19.1778,VALID,139,VALID,0.6125,
2013-02-14, 01:36:05,VALID,916.12,VALID,0,VALID,95.7882,VALID,0,VALID,19.1973,VALID,135,VALID,0.321484,
2013-02-14, 01:37:05,VALID,916.13,VALID,0,VALID,95.7501,VALID,0,VALID,19.1973,VALID,124,VALID,0.732422,
2013-02-14, 01:38:05,VALID,916.109,VALID,0,VALID,95.7425,VALID,0,VALID,19.2168,VALID,125,VALID,0.949609,
2013-02-14, 01:39:05,VALID,916.11,VALID,0,VALID,95.7196,VALID,0,VALID,19.2363,VALID,116,VALID,1.04414,
2013-02-14, 01:40:05,VALID,916.092,VALID,0,VALID,95.6053,VALID,0,VALID,19.2348,VALID,114,VALID,1.0457,
2013-02-14, 01:41:05,VALID,916.07,VALID,0,VALID,95.529,VALID,0,VALID,19.2558,VALID,117,VALID,0.865625,
2013-02-14, 01:42:05,VALID,916.062,VALID,0,VALID,95.5062,VALID,0,VALID,19.2543,VALID,121,VALID,1.10625,
2013-02-14, 01:43:05,VALID,916.066,VALID,0,VALID,95.4452,VALID,0,VALID,19.2753,VALID,117,VALID,1.20703,
2013-02-14, 01:44:05,VALID,916.041,VALID,0,VALID,95.3689,VALID,0,VALID,19.2948,VALID,118,VALID,0.946094,
2013-02-14, 01:45:05,VALID,916.037,VALID,0,VALID,95.3461,VALID,0,VALID,19.3352,VALID,126,VALID,1.23477,
2013-02-14, 01:46:05,VALID,916.011,VALID,0,VALID,95.3156,VALID,0,VALID,19.3143,VALID,127,VALID,0.492578,
2013-02-14, 01:47:05,VALID,915.988,VALID,0,VALID,95.2622,VALID,0,VALID,19.2738,VALID,124,VALID,0.719531,
2013-02-14, 01:48:05,VALID,915.971,VALID,0,VALID,95.2698,VALID,0,VALID,19.3157,VALID,122,VALID,0.785156,
2013-02-14, 01:49:05,VALID,915.938,VALID,0,VALID,95.3079,VALID,0,VALID,19.2753,VALID,119,VALID,0.750391,
2013-02-14, 01:50:05,VALID,915.926,VALID,0,VALID,95.3232,VALID,0,VALID,19.2753,VALID,118,VALID,0.507813,
2013-02-14, 01:51:05,VALID,915.94,VALID,0,VALID,95.2927,VALID,0,VALID,19.2753,VALID,118,VALID,0.539844,
2013-02-14, 01:52:05,VALID,915.915,VALID,0,VALID,95.3994,VALID,0,VALID,19.2962,VALID,131,VALID,1.02227,
2013-02-14, 01:53:05,VALID,915.905,VALID,0,VALID,95.4147,VALID,0,VALID,19.3172,VALID,120,VALID,0.729688,
2013-02-14, 01:54:05,VALID,915.878,VALID,0,VALID,95.4452,VALID,0,VALID,19.2738,VALID,125,VALID,0.596875,
2013-02-14, 01:55:05,VALID,915.848,VALID,0,VALID,95.4909,VALID,0,VALID,19.3157,VALID,138,VALID,0.724219,
2013-02-14, 01:56:05,VALID,915.849,VALID,0,VALID,95.468,VALID,0,VALID,19.3352,VALID,138,VALID,0.656641,
2013-02-14, 01:57:05,VALID,915.839,VALID,0,VALID,95.468,VALID,0,VALID,19.3352,VALID,138,VALID,0.0195313,
2013-02-14, 01:58:05,VALID,915.827,VALID,0,VALID,95.5062,VALID,0,VALID,19.3562,VALID,138,VALID,0.533984,
2013-02-14, 01:59:05,VALID,915.828,VALID,0,VALID,95.468,VALID,0,VALID,19.3128,VALID,138,VALID,0.507031,
2013-02-14, 02:00:05,VALID,915.842,VALID,0,VALID,95.4528,VALID,0,VALID,19.3562,VALID,138,VALID,0,
2013-02-14, 02:01:05,VALID,915.792,VALID,0,VALID,95.4375,VALID,0,VALID,19.3157,VALID,144,VALID,0.483203,
2013-02-14, 02:02:05,VALID,915.782,VALID,0,VALID,95.4528,VALID,0,VALID,19.3157,VALID,175,VALID,0.288281,
2013-02-14, 02:03:05,VALID,915.782,VALID,0,VALID,95.4909,VALID,0,VALID,19.2543,VALID,139,VALID,0.766797,
2013-02-14, 02:04:05,VALID,915.792,VALID,0,VALID,95.4757,VALID,0,VALID,19.2767,VALID,97,VALID,0.394531,
2013-02-14, 02:05:05,VALID,915.758,VALID,0,VALID,95.5062,VALID,0,VALID,19.2334,VALID,124,VALID,1.10156,
2013-02-14, 02:06:05,VALID,915.749,VALID,0,VALID,95.529,VALID,0,VALID,19.2948,VALID,122,VALID,1.11289,
2013-02-14, 02:07:05,VALID,915.752,VALID,0,VALID,95.4909,VALID,0,VALID,19.3338,VALID,149,VALID,0.937109,
2013-02-14, 02:08:05,VALID,915.737,VALID,0,VALID,95.4757,VALID,0,VALID,19.3742,VALID,135,VALID,1.08047,
2013-02-14, 02:09:05,VALID,915.725,VALID,0,VALID,95.3766,VALID,0,VALID,19.3923,VALID,121,VALID,0.732031,
2013-02-14, 02:10:05,VALID,915.732,VALID,0,VALID,95.3003,VALID,0,VALID,19.3893,VALID,121,VALID,1.23203,
2013-02-14, 02:11:05,VALID,915.721,VALID,0,VALID,95.2241,VALID,0,VALID,19.4942,VALID,124,VALID,1.46133,
2013-02-14, 02:12:05,VALID,915.703,VALID,0,VALID,95.125,VALID,0,VALID,19.4703,VALID,123,VALID,1.56367,
2013-02-14, 02:13:05,VALID,915.721,VALID,0,VALID,94.9801,VALID,0,VALID,19.5332,VALID,116,VALID,0.852734,
2013-02-14, 02:14:05,VALID,915.708,VALID,0,VALID,94.8505,VALID,0,VALID,19.5317,VALID,116,VALID,0.710156,
2013-02-14, 02:15:05,VALID,915.698,VALID,0,VALID,94.7819,VALID,0,VALID,19.4478,VALID,131,VALID,1.08047,
2013-02-14, 02:16:05,VALID,915.701,VALID,0,VALID,94.6828,VALID,0.107441,VALID,19.5078,VALID,119,VALID,1.00781,
2013-02-14, 02:17:05,VALID,915.657,VALID,0,VALID,94.5685,VALID,0.107441,VALID,19.4868,VALID,126,VALID,0.687109,
2013-02-14, 02:18:05,VALID,915.645,VALID,0,VALID,94.4617,VALID,0,VALID,19.5678,VALID,158,VALID,0.607813,
2013-02-14, 02:19:05,VALID,915.641,VALID,0,VALID,94.3779,VALID,0.107441,VALID,19.5678,VALID,119,VALID,0.902344,
2013-02-14, 02:20:05,VALID,915.625,VALID,0,VALID,94.3245,VALID,0.107441,VALID,19.5468,VALID,122,VALID,0.305859,
2013-02-14, 02:21:05,VALID,915.587,VALID,0,VALID,94.2788,VALID,0,VALID,19.5888,VALID,141,VALID,1.08438,
2013-02-14, 02:22:05,VALID,915.57,VALID,0,VALID,94.2254,VALID,0,VALID,19.6683,VALID,157,VALID,0.489453,
2013-02-14, 02:23:05,VALID,915.558,VALID,0,VALID,94.0577,VALID,0,VALID,19.5828,VALID,134,VALID,0.443359,
2013-02-14, 02:24:05,VALID,915.549,VALID,0,VALID,93.9434,VALID,0,VALID,19.6668,VALID,162,VALID,0.710938,
2013-02-14, 02:25:05,VALID,915.508,VALID,0,VALID,93.951,VALID,0,VALID,19.6053,VALID,162,VALID,0.229687,
2013-02-14, 02:26:05,VALID,915.465,VALID,0,VALID,93.951,VALID,0,VALID,19.6053,VALID,140,VALID,0.797656,
2013-02-14, 02:27:05,VALID,915.427,VALID,0,VALID,93.9052,VALID,0,VALID,19.6263,VALID,148,VALID,1.02656,
2013-02-14, 02:28:05,VALID,915.414,VALID,0,VALID,93.8976,VALID,0.107441,VALID,19.5843,VALID,142,VALID,0.723047,
2013-02-14, 02:29:05,VALID,915.361,VALID,0,VALID,93.8671,VALID,0.107441,VALID,19.6488,VALID,153,VALID,0.35625,
2013-02-14, 02:30:05,VALID,915.338,VALID,0,VALID,93.8976,VALID,0,VALID,19.6053,VALID,153,VALID,0.263281,
2013-02-14, 02:31:05,VALID,915.35,VALID,0,VALID,93.9052,VALID,0,VALID,19.6068,VALID,153,VALID,0.303125,
2013-02-14, 02:32:05,VALID,915.324,VALID,0,VALID,93.951,VALID,0,VALID,19.5873,VALID,153,VALID,0.0046875,
2013-02-14, 02:33:05,VALID,915.303,VALID,0,VALID,94.0425,VALID,0,VALID,19.6098,VALID,153,VALID,0.25,
2013-02-14, 02:34:05,VALID,915.349,VALID,0,VALID,94.0882,VALID,0,VALID,19.5063,VALID,153,VALID,0.075,
2013-02-14, 02:35:05,VALID,915.339,VALID,0,VALID,94.2102,VALID,0.107441,VALID,19.5078,VALID,153,VALID,0,
2013-02-14, 02:36:05,VALID,915.317,VALID,0,VALID,94.2712,VALID,0,VALID,19.4883,VALID,153,VALID,0,
2013-02-14, 02:37:05,VALID,915.331,VALID,0,VALID,94.3245,VALID,0,VALID,19.4268,VALID,153,VALID,0.147656,
2013-02-14, 02:38:05,VALID,915.319,VALID,0,VALID,94.3779,VALID,0,VALID,19.5122,VALID,153,VALID,0.351953,
2013-02-14, 02:39:05,VALID,915.312,VALID,0,VALID,94.4313,VALID,0,VALID,19.4103,VALID,127,VALID,0.762891,
2013-02-14, 02:40:05,VALID,915.311,VALID,0,VALID,94.5227,VALID,0,VALID,19.3698,VALID,125,VALID,0.736719,
2013-02-14, 02:41:05,VALID,915.291,VALID,0,VALID,94.6447,VALID,0,VALID,19.3533,VALID,125,VALID,0.55,
2013-02-14, 02:42:05,VALID,915.283,VALID,0,VALID,94.8124,VALID,0,VALID,19.2918,VALID,125,VALID,0.509375,
2013-02-14, 02:43:05,VALID,915.288,VALID,0,VALID,94.9344,VALID,0.107441,VALID,19.2918,VALID,125,VALID,0.534375,
2013-02-14, 02:44:05,VALID,915.264,VALID,0,VALID,95.0488,VALID,0,VALID,19.3128,VALID,126,VALID,0.624609,
2013-02-14, 02:45:05,VALID,915.265,VALID,0,VALID,95.1021,VALID,0.107441,VALID,19.3323,VALID,128,VALID,0.301953,
2013-02-14, 02:46:05,VALID,915.237,VALID,0,VALID,95.1555,VALID,0.107441,VALID,19.3113,VALID,128,VALID,0.191797,
2013-02-14, 02:47:05,VALID,915.248,VALID,0,VALID,95.1631,VALID,0,VALID,19.3323,VALID,128,VALID,0,
2013-02-14, 02:48:05,VALID,915.231,VALID,0,VALID,95.2012,VALID,0,VALID,19.3742,VALID,127,VALID,0.275781,
2013-02-14, 02:49:05,VALID,915.229,VALID,0,VALID,95.2393,VALID,0,VALID,19.3547,VALID,135,VALID,0.642969,
2013-02-14, 02:50:05,VALID,915.189,VALID,0,VALID,95.2698,VALID,0,VALID,19.3143,VALID,142,VALID,0.514063,
2013-02-14, 02:51:05,VALID,915.18,VALID,0,VALID,95.3232,VALID,0,VALID,19.2933,VALID,142,VALID,0.388281,
2013-02-14, 02:52:05,VALID,915.178,VALID,0,VALID,95.3842,VALID,0,VALID,19.3143,VALID,142,VALID,0.426562,
2013-02-14, 02:53:05,VALID,915.14,VALID,0,VALID,95.4147,VALID,0,VALID,19.3352,VALID,143,VALID,0.445313,
2013-02-14, 02:54:05,VALID,915.155,VALID,0,VALID,95.4757,VALID,0,VALID,19.3143,VALID,142,VALID,0.2875,
2013-02-14, 02:55:05,VALID,915.161,VALID,0,VALID,95.4757,VALID,0,VALID,19.3547,VALID,143,VALID,0.462109,
2013-02-14, 02:56:05,VALID,915.172,VALID,0,VALID,95.468,VALID,0,VALID,19.3352,VALID,143,VALID,0.619922,
2013-02-14, 02:57:05,VALID,915.149,VALID,0,VALID,95.4985,VALID,0,VALID,19.3157,VALID,143,VALID,0,
2013-02-14, 02:58:05,VALID,915.179,VALID,0,VALID,95.4833,VALID,0,VALID,19.2948,VALID,143,VALID,0.394141,
2013-02-14, 02:59:05,VALID,915.185,VALID,0,VALID,95.529,VALID,0.107441,VALID,19.2543,VALID,137,VALID,0.639844,
2013-02-14, 03:00:05,VALID,915.186,VALID,0,VALID,95.6129,VALID,0.107441,VALID,19.2558,VALID,157,VALID,0.269922,
2013-02-14, 03:01:05,VALID,915.188,VALID,0,VALID,95.6739,VALID,0.107441,VALID,19.2363,VALID,157,VALID,0.327734,
2013-02-14, 03:02:05,VALID,915.172,VALID,0,VALID,95.7501,VALID,0,VALID,19.2572,VALID,157,VALID,0.454297,
2013-02-14, 03:03:05,VALID,915.181,VALID,0,VALID,95.8187,VALID,0,VALID,19.2153,VALID,157,VALID,0.484375,
2013-02-14, 03:04:05,VALID,915.164,VALID,0,VALID,95.9026,VALID,0,VALID,19.1749,VALID,157,VALID,0.721875,
2013-02-14, 03:05:05,VALID,915.17,VALID,0,VALID,95.9559,VALID,0,VALID,19.1944,VALID,139,VALID,0.322266,
2013-02-14, 03:06:05,VALID,915.182,VALID,0,VALID,96.0245,VALID,0,VALID,19.2363,VALID,152,VALID,0.644141,
2013-02-14, 03:07:05,VALID,915.191,VALID,0,VALID,96.0627,VALID,0,VALID,19.2558,VALID,159,VALID,0.644922,
2013-02-14, 03:08:05,VALID,915.165,VALID,0,VALID,96.0855,VALID,0,VALID,19.2738,VALID,167,VALID,0.420312,
2013-02-14, 03:09:05,VALID,915.179,VALID,0,VALID,96.0703,VALID,0,VALID,19.3157,VALID,163,VALID,0.751172,
2013-02-14, 03:10:05,VALID,915.214,VALID,0,VALID,96.1008,VALID,0.107441,VALID,19.3143,VALID,161,VALID,0.321875,
2013-02-14, 03:11:05,VALID,915.167,VALID,0,VALID,96.1084,VALID,0,VALID,19.2723,VALID,162,VALID,0.865234,
2013-02-14, 03:12:05,VALID,915.186,VALID,0,VALID,96.1008,VALID,0,VALID,19.2918,VALID,158,VALID,0.592578,
2013-02-14, 03:13:04,VALID,915.171,VALID,0,VALID,96.0779,VALID,0,VALID,19.2723,VALID,156,VALID,0.463281,
2013-02-14, 03:14:04,VALID,915.184,VALID,0,VALID,96.0703,VALID,0,VALID,19.3128,VALID,155,VALID,0.371875,
2013-02-14, 03:15:04,VALID,915.188,VALID,0,VALID,96.0627,VALID,0,VALID,19.3143,VALID,133,VALID,0.473437,
2013-02-14, 03:16:04,VALID,915.184,VALID,0,VALID,96.0627,VALID,0,VALID,19.2933,VALID,133,VALID,0.603906,
2013-02-14, 03:17:04,VALID,915.161,VALID,0,VALID,96.0779,VALID,0,VALID,19.3143,VALID,147,VALID,0.750391,
2013-02-14, 03:18:04,VALID,915.189,VALID,0,VALID,96.1084,VALID,0,VALID,19.2918,VALID,171,VALID,0.846484,
2013-02-14, 03:19:04,VALID,915.192,VALID,0,VALID,96.1084,VALID,0,VALID,19.3533,VALID,179,VALID,0.374219,
2013-02-14, 03:20:04,VALID,915.185,VALID,0,VALID,96.0779,VALID,0,VALID,19.2694,VALID,139,VALID,0.45,
2013-02-14, 03:21:04,VALID,915.218,VALID,0,VALID,96.0322,VALID,0,VALID,19.3099,VALID,152,VALID,0.968359,
2013-02-14, 03:22:04,VALID,915.186,VALID,0,VALID,96.055,VALID,0.107441,VALID,19.3308,VALID,173,VALID,1.2293,
2013-02-14, 03:23:04,VALID,915.175,VALID,0,VALID,96.0245,VALID,0,VALID,19.2904,VALID,145,VALID,1.13633,
2013-02-14, 03:24:04,VALID,915.139,VALID,0,VALID,96.0245,VALID,0,VALID,19.3323,VALID,137,VALID,1.53398,
2013-02-14, 03:25:04,VALID,915.206,VALID,0,VALID,96.0245,VALID,0,VALID,19.2918,VALID,128,VALID,0.850781,
2013-02-14, 03:26:04,VALID,915.148,VALID,0,VALID,96.0245,VALID,0,VALID,19.3533,VALID,137,VALID,0.897266,
2013-02-14, 03:27:04,VALID,915.161,VALID,0,VALID,96.0245,VALID,0.107441,VALID,19.3128,VALID,138,VALID,0.810547,
2013-02-14, 03:28:04,VALID,915.136,VALID,0,VALID,96.0322,VALID,0,VALID,19.3113,VALID,142,VALID,0.55,
2013-02-14, 03:29:04,VALID,915.142,VALID,0,VALID,96.0322,VALID,0,VALID,19.2709,VALID,141,VALID,1.03594,
2013-02-14, 03:30:04,VALID,915.117,VALID,0,VALID,96.0322,VALID,0,VALID,19.3113,VALID,155,VALID,1.17344,
2013-02-14, 03:31:04,VALID,915.097,VALID,0,VALID,96.0398,VALID,0,VALID,19.3742,VALID,152,VALID,0.567578,
2013-02-14, 03:32:04,VALID,915.114,VALID,0,VALID,95.9788,VALID,0,VALID,19.3937,VALID,120,VALID,0.930469,
2013-02-14, 03:33:04,VALID,915.138,VALID,0,VALID,95.9788,VALID,0,VALID,19.4357,VALID,158,VALID,0.840234,
2013-02-14, 03:34:04,VALID,915.114,VALID,0,VALID,95.9788,VALID,0,VALID,19.3713,VALID,128,VALID,0.916406,
2013-02-14, 03:35:04,VALID,915.144,VALID,0,VALID,95.9331,VALID,0,VALID,19.3503,VALID,174,VALID,0.461719,
2013-02-14, 03:36:04,VALID,915.109,VALID,0,VALID,95.8797,VALID,0,VALID,19.4747,VALID,159,VALID,0.668359,
2013-02-14, 03:37:04,VALID,915.133,VALID,0,VALID,95.8492,VALID,0,VALID,19.3698,VALID,168,VALID,0.757813,
2013-02-14, 03:38:04,VALID,915.133,VALID,0,VALID,95.8187,VALID,0.107441,VALID,19.3908,VALID,161,VALID,0.6,
2013-02-14, 03:39:04,VALID,915.107,VALID,0,VALID,95.773,VALID,0.107441,VALID,19.4523,VALID,159,VALID,0.452734,
2013-02-14, 03:40:04,VALID,915.148,VALID,0,VALID,95.6967,VALID,0,VALID,19.3937,VALID,141,VALID,0.935156,
2013-02-14, 03:41:04,VALID,915.114,VALID,0,VALID,95.6053,VALID,0,VALID,19.4732,VALID,129,VALID,1.2918,
2013-02-14, 03:42:04,VALID,915.153,VALID,0,VALID,95.4452,VALID,0,VALID,19.3893,VALID,127,VALID,1.03437,
2013-02-14, 03:43:04,VALID,915.168,VALID,0,VALID,95.2851,VALID,0,VALID,19.4313,VALID,135,VALID,1.01523,